• In Belarus
  • List of Countries
  • For 7 days
  • Water Temperature
  • Weather Map
  • Weather Widgets
  • user-avatar
    Login

    Hourly Weather Klagenfurt

    Today, 28 March, Saturday

    Time Temperature Precipitation Wind Pressure Humidity
    00:00 +2°C° 0 mm 1 mps 689 mmHg 88%
    01:00 +2°C° 0 mm 1 mps 689 mmHg 88%
    02:00 +2°C° 0 mm 1 mps 688 mmHg 88%
    03:00 +2°C° 0 mm 1 mps 688 mmHg 88%
    04:00 +1°C° 0 mm 1 mps 687 mmHg 88%
    05:00 +2°C° 0 mm 1 mps 688 mmHg 86%
    06:00 +3°C° 0 mm 1 mps 688 mmHg 83%
    07:00 +4°C° 0 mm 1 mps 688 mmHg 80%
    08:00 +6°C° 0 mm 1 mps 688 mmHg 71%
    09:00 +8°C° 0 mm 1 mps 689 mmHg 63%
    10:00 +11°C° 0 mm 1 mps 689 mmHg 55%
    11:00 +12°C° 0 mm 1 mps 689 mmHg 52%
    12:00 +13°C° 0 mm 1 mps 688 mmHg 50%
    13:00 +14°C° 0 mm 1 mps 688 mmHg 47%
    14:00 +13°C° 0 mm 1 mps 688 mmHg 48%
    15:00 +13°C° 0 mm 1 mps 687 mmHg 49%
    16:00 +13°C° 0 mm 1 mps 687 mmHg 51%
    17:00 +11°C° 0 mm 1 mps 687 mmHg 60%
    18:00 +9°C° 0 mm 1 mps 687 mmHg 69%
    19:00 +6°C° 0 mm 1 mps 686 mmHg 78%
    20:00 +6°C° 0 mm 1 mps 687 mmHg 79%
    21:00 +6°C° 0 mm 1 mps 687 mmHg 80%
    22:00 +5°C° 0 mm 1 mps 687 mmHg 81%
    23:00 +5°C° 0 mm 1 mps 687 mmHg 82%

    Tomorrow, 29 March, Sunday

    Time Temperature Precipitation Wind Pressure Humidity
    00:00 +4°C° 0 mm 1 mps 687 mmHg 83%
    01:00 +4°C° 0 mm 1 mps 687 mmHg 83%
    02:00 +4°C° 0 mm 1 mps 687 mmHg 84%
    03:00 +3°C° 0 mm 1 mps 686 mmHg 84%
    04:00 +3°C° 0 mm 1 mps 686 mmHg 85%
    05:00 +4°C° 0 mm 1 mps 686 mmHg 83%
    06:00 +4°C° 0 mm 1 mps 686 mmHg 81%
    07:00 +5°C° 0 mm 1 mps 686 mmHg 79%
    08:00 +7°C° 0 mm 1 mps 687 mmHg 70%
    09:00 +10°C° 0 mm 1 mps 687 mmHg 61%
    10:00 +12°C° 0 mm 1 mps 688 mmHg 52%
    11:00 +13°C° 0.2 mm 1 mps 687 mmHg 51%
    12:00 +14°C° 0.2 mm 1 mps 687 mmHg 49%
    13:00 +15°C° 0.2 mm 1 mps 687 mmHg 48%
    14:00 +14°C° 0.5 mm 1 mps 686 mmHg 53%
    15:00 +13°C° 0.5 mm 1 mps 686 mmHg 58%
    16:00 +12°C° 0.5 mm 1 mps 686 mmHg 63%
    17:00 +10°C° 0.5 mm 1 mps 686 mmHg 71%
    18:00 +9°C° 0.5 mm 1 mps 686 mmHg 79%
    19:00 +8°C° 0.5 mm 1 mps 686 mmHg 87%
    20:00 +7°C° 1.2 mm 1 mps 686 mmHg 90%
    21:00 +6°C° 1.2 mm 1 mps 686 mmHg 93%
    22:00 +5°C° 1.2 mm 1 mps 686 mmHg 95%
    23:00 +5°C° 2.1 mm 1 mps 687 mmHg 96%

    Day after tomorrow, 30 March, Monday

    Time Temperature Precipitation Wind Pressure Humidity
    00:00 +4°C° 2.1 mm 1 mps 687 mmHg 96%
    01:00 +3°C° 2.1 mm 1 mps 687 mmHg 97%
    02:00 +3°C° 1.7 mm 1 mps 687 mmHg 97%
    03:00 +3°C° 1.7 mm 1 mps 687 mmHg 97%
    04:00 +3°C° 1.7 mm 1 mps 687 mmHg 98%
    05:00 +2°C° 1.3 mm 1 mps 687 mmHg 97%
    06:00 +2°C° 1.3 mm 1 mps 687 mmHg 97%
    07:00 +2°C° 1.3 mm 1 mps 687 mmHg 97%
    08:00 +2°C° 0.4 mm 1 mps 688 mmHg 96%
    09:00 +3°C° 0.4 mm 1 mps 688 mmHg 94%
    10:00 +3°C° 0.4 mm 1 mps 688 mmHg 93%
    11:00 +3°C° 0.5 mm 1 mps 688 mmHg 93%
    12:00 +3°C° 0.5 mm 1 mps 688 mmHg 93%
    13:00 +2°C° 0.5 mm 2 mps 688 mmHg 92%
    14:00 +2°C° 0.6 mm 2 mps 688 mmHg 93%
    15:00 +2°C° 0.6 mm 2 mps 688 mmHg 93%
    16:00 +1°C° 0.6 mm 2 mps 688 mmHg 93%
    17:00 +1°C° 0.8 mm 2 mps 688 mmHg 92%
    18:00 -1°C° 0.8 mm 2 mps 688 mmHg 91%
    19:00 -2°C° 0.8 mm 2 mps 689 mmHg 91%
    20:00 -2°C° 0.5 mm 2 mps 689 mmHg 91%
    21:00 -3°C° 0.5 mm 2 mps 689 mmHg 91%
    22:00 -3°C° 0.5 mm 2 mps 690 mmHg 91%
    23:00 -4°C° 0.1 mm 2 mps 690 mmHg 90%

    31 March, Tuesday

    Time Temperature Precipitation Wind Pressure Humidity
    00:00 -4°C° 0.1 mm 2 mps 690 mmHg 90%
    01:00 -4°C° 0.1 mm 2 mps 690 mmHg 89%
    02:00 -5°C° 0.1 mm 2 mps 690 mmHg 89%
    03:00 -5°C° 0.1 mm 2 mps 690 mmHg 89%
    04:00 -3°C° 0.1 mm 1 mps 690 mmHg 89%
    05:00 -5°C° 0.2 mm 2 mps 690 mmHg 89%
    06:00 -5°C° 0.2 mm 2 mps 690 mmHg 89%
    07:00 -5°C° 0.2 mm 2 mps 690 mmHg 90%
    08:00 -4°C° 0.1 mm 2 mps 691 mmHg 85%
    09:00 -3°C° 0.1 mm 2 mps 691 mmHg 80%
    10:00 -2°C° 0.1 mm 2 mps 691 mmHg 75%
    11:00 -1°C° 0.1 mm 2 mps 691 mmHg 72%
    12:00 -1°C° 0.1 mm 2 mps 691 mmHg 68%
    13:00 +1°C° 0.1 mm 2 mps 691 mmHg 65%
    14:00 +1°C° 0 mm 2 mps 691 mmHg 63%
    15:00 +1°C° 0 mm 2 mps 691 mmHg 61%
    16:00 +1°C° 0 mm 2 mps 691 mmHg 59%
    17:00 -2°C° 0 mm 2 mps 691 mmHg 65%
    18:00 -3°C° 0 mm 2 mps 691 mmHg 71%
    19:00 -3°C° 0 mm 1 mps 690 mmHg 76%
    20:00 -4°C° 0 mm 1 mps 691 mmHg 78%
    21:00 -4°C° 0 mm 1 mps 691 mmHg 79%
    22:00 -6°C° 0 mm 1 mps 692 mmHg 81%
    23:00 -6°C° 0 mm 1 mps 692 mmHg 81%

    1 April, Wednesday

    Time Temperature Precipitation Wind Pressure Humidity
    00:00 -6°C° 0 mm 1 mps 691 mmHg 81%
    01:00 -6°C° 0 mm 1 mps 691 mmHg 82%
    02:00 -7°C° 0 mm 1 mps 691 mmHg 82%
    03:00 -7°C° 0 mm 1 mps 691 mmHg 83%
    04:00 -7°C° 0 mm 1 mps 691 mmHg 84%
    05:00 -6°C° 0 mm 1 mps 691 mmHg 82%
    06:00 -4°C° 0 mm 1 mps 691 mmHg 80%
    07:00 -4°C° 0 mm 1 mps 691 mmHg 79%
    08:00 -1°C° 0 mm 1 mps 691 mmHg 72%
    09:00 +1°C° 0 mm 1 mps 691 mmHg 64%
    10:00 +3°C° 0 mm 1 mps 691 mmHg 57%
    11:00 +4°C° 0 mm 1 mps 691 mmHg 56%
    12:00 +4°C° 0 mm 0 mps 691 mmHg 56%
    13:00 +5°C° 0 mm 0 mps 691 mmHg 55%
    14:00 +5°C° 0 mm 0 mps 690 mmHg 56%
    15:00 +5°C° 0 mm 0 mps 690 mmHg 57%
    16:00 +5°C° 0 mm 1 mps 689 mmHg 57%
    17:00 +2°C° 0 mm 0 mps 689 mmHg 64%
    18:00 0°C° 0 mm 0 mps 688 mmHg 70%
    19:00 -2°C° 0 mm 0 mps 688 mmHg 77%
    20:00 -2°C° 0 mm 0 mps 688 mmHg 78%
    21:00 -2°C° 0 mm 0 mps 688 mmHg 78%
    22:00 -2°C° 0 mm 1 mps 689 mmHg 79%
    23:00 -2°C° 0 mm 1 mps 688 mmHg 79%

    2 April, Thursday

    Time Temperature Precipitation Wind Pressure Humidity
    00:00 -2°C° 0 mm 1 mps 688 mmHg 79%
    01:00 -4°C° 0 mm 0 mps 688 mmHg 79%
    02:00 -4°C° 0 mm 0 mps 688 mmHg 79%
    03:00 -4°C° 0 mm 0 mps 687 mmHg 78%
    04:00 -4°C° 0 mm 0 mps 687 mmHg 78%
    05:00 -3°C° 0 mm 0 mps 687 mmHg 76%
    06:00 -2°C° 0 mm 0 mps 687 mmHg 74%
    07:00 -1°C° 0 mm 0 mps 687 mmHg 71%
    08:00 +1°C° 0 mm 0 mps 687 mmHg 67%
    09:00 +3°C° 0 mm 0 mps 688 mmHg 62%
    10:00 +6°C° 0 mm 1 mps 688 mmHg 58%
    11:00 +7°C° 0 mm 1 mps 688 mmHg 56%
    12:00 +8°C° 0 mm 1 mps 688 mmHg 53%
    13:00 +9°C° 0 mm 1 mps 688 mmHg 51%
    14:00 +9°C° 0 mm 1 mps 687 mmHg 52%
    15:00 +8°C° 0 mm 1 mps 687 mmHg 53%
    16:00 +8°C° 0 mm 1 mps 686 mmHg 54%
    17:00 +6°C° 0 mm 1 mps 686 mmHg 61%
    18:00 +4°C° 0 mm 1 mps 686 mmHg 68%
    19:00 +2°C° 0 mm 1 mps 686 mmHg 74%
    20:00 +1°C° 0 mm 1 mps 686 mmHg 75%
    21:00 0°C° 0 mm 1 mps 686 mmHg 76%
    22:00 0°C° 0 mm 1 mps 687 mmHg 77%
    23:00 0°C° 0 mm 1 mps 686 mmHg 77%
    Show more